Regional Weather Roundup
Issued by NWS

Home | Current Version | Previous Version | Graphics & Text | Print | Product List | Glossary On
Versions: 1 2 3 4 5 6 7 8 9 10 11 12 13 14 15 16 17 18 19 20 21 22 23 24 25 26 27 28 29 30 31 32 33 34 35 36 37 38 39 40 41 42 43 44 45 46 47 48 49 50
569
ASUS45 KCYS 030110
RWRWY

WYOMING REGIONAL WEATHER ROUNDUP
NATIONAL WEATHER SERVICE CHEYENNE WY
600 PM MST FRI DEC 02 2016

NOTE:  "FAIR" INDICATES FEW OR NO CLOUDS BELOW 12,000 FEET
WITH NO SIGNIFICANT WEATHER AND/OR OBSTRUCTIONS TO VISIBILITY.

WYZ001-030200-
YELLOWSTONE NATIONAL PARK

CITY           SKY/WX    TMP DP  RH WIND       PRES   REMARKS
LK YELLOWSTONE   N/A      9   6  88 CALM      30.11F
W YELLOWSTONE  NOT AVBL

$$
WYZ002>013-054>058-071-098>099-030200-
NORTHERN WYOMING

CITY           SKY/WX    TMP DP  RH WIND       PRES   REMARKS
JACKSON        FAIR      16  12  86 S6        30.16S WCI   7
CODY           FAIR      29   9  43 SW12      30.07F WCI  19
GREYBULL       FAIR      30  19  63 E3        30.10F
WORLAND        FAIR      29  20  69 SE10      30.10F WCI  20
SHERIDAN       FAIR      23  17  78 CALM      30.07F
BUFFALO        FAIR      26  16  65 W9        30.06F WCI  17
GILLETTE       FAIR      22  18  85 S10       30.10F WCI  11
HULETT         FAIR      27  19  74 S8        30.13F WCI  18
NEWCASTLE      FAIR      25  19  80 E3        30.17S

$$
WYZ014>020-022>026-101>103-030200-
CENTRAL WYOMING

CITY           SKY/WX    TMP DP  RH WIND       PRES   REMARKS
BIG PINEY      MOCLDY    19  14  81 N9        30.14S WCI   8
PINEDALE       MOCLDY    18  10  73 W5        30.14S WCI  11
DUBOIS         FAIR      18   5  57 NW14      30.06F WCI   4
LANDER         FAIR      21  11  65 W12       30.11R WCI   9
RIVERTON       FAIR      25  16  68 SW6       30.12S WCI  18
CASPER         FAIR      20  15  81 SW6       30.14S WCI  12
DOUGLAS        FAIR      22  19  89 SE3       30.16S

$$
WYZ021-027>030-104>119-030200-
SOUTHERN WYOMING

CITY           SKY/WX    TMP DP  RH WIND       PRES   REMARKS
EVANSTON       FAIR      20   7  57 NW5       30.17R WCI  13
FORT BRIDGER   FAIR      20  11  66 W6        30.19S WCI  13
ROCK SPRINGS   FAIR      15  10  80 W8        30.15S WCI   4
DIXON          CLOUDY    16  11  80 CALM      30.18R
RAWLINS        FAIR       9   4  80 CALM      30.13R
SARATOGA       CLOUDY    19  16  86 W3        30.13S
LARAMIE        CLOUDY    17  13  84 SE7       30.08R WCI   8
CHEYENNE       FLURRIES  25  22  88 S8        30.13S WCI  16
TORRINGTON     CLOUDY    30  19  63 SE5       30.18R WCI  25
PINE BLUFFS    CLOUDY    28  27  93 S7        30.18S WCI  21

$$




USA.gov is the U.S. government's official web portal to all federal, state and local government web resources and services.